User: anonymous   Login
Location: Bonnesvalyn
(49.1218°N, 3.3177°E)
Time: 20:18:41
(UTC+00:00)
Language:

Cosmos 1814 Rocket - Orbit

View from above orbital plane
View from above orbital plane
View from above satellite
View from above satellite

Ground track
Ground track

The orbit data is extracted from the following two-line orbital elements,

1 17304U 87006B   24151.32048304  .00000444  00000-0  15352-3 0  9994
2 17304  74.0576 102.2181 0028688  22.8193 337.4229 14.38393648958009
Epoch (UTC): 30 May 2024 07:41:29
Eccentricity: 0.0028688
inclination: 74.0576°
perigee height: 743 km
apogee height: 784 km
right ascension of ascending node: 102.2181°
argument of perigee: 22.8193°
revolutions per day: 14.38393648
mean anomaly at epoch: 337.4229°
orbit number at epoch: 95800

The dashed part of the orbit path shows where the satellite is in the earth's shadow,  

DLR